CW2327 Weather Reports


Display with metric or nautical units.
time (UTC)temp
F
wind
direction
speed
MPH
gust
MPH
rain 1hr
in
rain 24hr
in
rain mn
in
humidity
%
barometer
mb
20240521193458 83 238 7.0 14.0 0.00 0.00 0.00 65 1002.0
20240521192458 84 223 9.0 14.0 0.00 0.00 0.00 64 1001.0
20240521191958 84 221 7.0 16.0 0.00 0.00 0.00 65 1001.0
20240521191458 84 222 6.0 16.0 0.00 0.00 0.00 65 1001.0
20240521185457 85 227 6.0 9.0 0.00 0.00 0.00 66 1000.0
20240521184958 85 222 5.0 10.0 0.00 0.00 0.00 67 1000.0
20240521184458 85 199 6.0 10.0 0.00 0.00 0.00 66 1000.0
20240521183958 85 208 4.0 10.0 0.00 0.00 0.00 68 1000.0
20240521183459 85 220 5.0 10.0 0.00 0.00 0.00 69 1000.0
20240521182959 85 205 6.0 10.0 0.00 0.00 0.00 68 1000.0
20240521181958 86 188 8.0 14.0 0.00 0.00 0.00 67 1000.0
20240521181458 85 195 7.0 14.0 0.00 0.00 0.00 67 1000.0
20240521180958 85 198 6.0 15.0 0.00 0.00 0.00 70 1000.0
20240521180457 85 196 10.0 15.0 0.00 0.00 0.00 70 1000.0
20240521175958 85 183 7.0 13.0 0.00 0.00 0.00 70 1000.0
20240521175457 85 194 5.0 7.0 0.00 0.00 0.00 71 1000.0
20240521174958 85 198 4.0 11.0 0.00 0.00 0.00 71 1000.0
20240521172958 85 181 5.0 9.0 0.00 0.00 0.00 71 1000.0
20240521172458 84 176 6.0 9.0 0.00 0.00 0.00 72 1000.0
20240521171958 84 188 3.0 13.0 0.00 0.00 0.00 73 1000.0
20240521170957 84 165 6.0 12.0 0.00 0.00 0.00 72 1000.0
20240521170458 84 166 5.0 11.0 0.00 0.00 0.00 72 1000.0
20240521165958 83 170 6.0 10.0 0.00 0.00 0.00 74 1000.0
20240521165458 83 166 4.0 8.0 0.00 0.00 0.00 74 1000.0
20240521164958 83 175 4.0 10.0 0.00 0.00 0.00 73 1000.0
20240521164458 83 188 6.0 10.0 0.00 0.00 0.00 74 1000.0
20240521163958 83 188 4.0 9.0 0.00 0.00 0.00 74 1000.0
20240521163000 83 185 4.0 11.0 0.00 0.00 0.00 73 1000.0
20240521162458 83 178 4.0 10.0 0.00 0.00 0.00 75 1000.0
20240521161958 81 168 6.0 10.0 0.00 0.00 0.00 76 1000.0
20240521161458 80 186 3.0 7.0 0.00 0.00 0.00 78 1000.0
20240521160958 80 188 3.0 8.0 0.00 0.00 0.00 78 1000.0
20240521160458 79 194 7.0 8.0 0.00 0.00 0.00 78 1000.0
20240521155959 79 191 0.0 10.0 0.00 0.00 0.00 78 1000.0
20240521155458 79 164 6.0 10.0 0.00 0.00 0.00 78 1000.0
20240521154958 79 179 4.0 8.0 0.00 0.00 0.00 77 1000.0
20240521154458 79 204 4.0 8.0 0.00 0.00 0.00 78 1000.0
20240521153958 79 186 4.0 8.0 0.00 0.00 0.00 79 1000.0
20240521152958 78 169 3.0 7.0 0.00 0.00 0.00 79 1001.0
20240521152458 77 167 0.0 7.0 0.00 0.00 0.00 79 1001.0
20240521151958 77 168 4.0 10.0 0.00 0.00 0.00 80 1001.0
20240521151458 77 173 4.0 10.0 0.00 0.00 0.00 80 1001.0
20240521150959 77 190 0.0 4.0 0.00 0.00 0.00 81 1001.0
20240521150458 76 196 3.0 7.0 0.00 0.00 0.00 81 1001.0
20240521145958 76 196 4.0 7.0 0.00 0.00 0.00 81 1001.0
20240521145458 75 193 3.0 8.0 0.00 0.00 0.00 81 1001.0
20240521144958 75 207 0.0 8.0 0.00 0.00 0.00 81 1001.0
20240521144458 75 219 0.0 8.0 0.00 0.00 0.00 81 1001.0
20240521143958 75 184 0.0 8.0 0.00 0.00 0.00 81 1001.0
20240521143459 75 173 0.0 8.0 0.00 0.00 0.00 81 1001.0
20240521143000 75 194 4.0 7.0 0.00 0.00 0.00 81 1001.0
20240521141958 75 172 0.0 7.0 0.00 0.00 0.00 81 1001.0
20240521141459 75 164 5.0 7.0 0.00 0.00 0.00 81 1001.0
20240521135458 74 198 5.0 10.0 0.00 0.00 0.00 81 1001.0
20240521134959 74 192 6.0 10.0 0.00 0.00 0.00 81 1001.0
20240521134458 74 178 3.0 9.0 0.00 0.00 0.00 81 1001.0
20240521133958 74 179 6.0 10.0 0.00 0.00 0.00 81 1001.0
20240521133458 74 183 4.0 10.0 0.00 0.00 0.00 81 1001.0
20240521132959 74 189 5.0 10.0 0.00 0.00 0.00 81 1001.0
20240521132458 74 179 0.0 10.0 0.00 0.00 0.00 81 1001.0
20240521131959 74 183 0.0 10.0 0.00 0.00 0.00 81 1001.0
20240521131458 74 196 3.0 10.0 0.00 0.00 0.00 81 1001.0
20240521130959 74 195 7.0 10.0 0.00 0.00 0.00 81 1001.0
20240521130458 74 190 6.0 10.0 0.00 0.00 0.00 81 1001.0
20240521125959 74 166 6.0 8.0 0.00 0.00 0.00 81 1001.0
20240521124959 74 169 5.0 10.0 0.00 0.00 0.00 81 1001.0
20240521124458 74 182 5.0 10.0 0.00 0.00 0.00 81 1001.0
20240521123959 74 176 3.0 10.0 0.00 0.00 0.00 81 1001.0
20240521123459 74 162 6.0 10.0 0.00 0.00 0.00 81 1001.0
20240521122959 73 157 6.0 10.0 0.00 0.00 0.00 81 1001.0
20240521122458 73 175 3.0 8.0 0.00 0.00 0.00 82 1001.0
20240521121959 73 199 6.0 10.0 0.00 0.00 0.00 83 1001.0
20240521121459 73 194 4.0 10.0 0.00 0.00 0.00 83 1001.0
20240521120959 73 179 8.0 10.0 0.00 0.00 0.00 83 1001.0
20240521120458 73 200 5.0 10.0 0.00 0.00 0.00 83 1001.0
20240521115959 72 172 3.0 10.0 0.00 0.00 0.00 77 1000.0
20240521115458 72 145 6.0 10.0 0.00 0.00 0.00 83 1000.0
20240521114458 72 163 6.0 10.0 0.00 0.00 0.00 83 1001.0
20240521113959 72 159 3.0 10.0 0.00 0.00 0.00 83 1001.0
20240521113458 72 154 3.0 10.0 0.00 0.00 0.00 83 1001.0
20240521112959 72 145 5.0 8.0 0.00 0.00 0.00 83 1001.0
20240521112458 72 136 4.0 6.0 0.00 0.00 0.00 83 1001.0
20240521111959 72 146 3.0 6.0 0.00 0.00 0.00 83 1001.0
20240521111459 72 150 3.0 6.0 0.00 0.00 0.00 83 1001.0
20240521110959 72 139 0.0 6.0 0.00 0.00 0.00 83 1001.0
20240521110459 72 126 3.0 7.0 0.00 0.00 0.00 83 1001.0
20240521105959 72 133 4.0 10.0 0.00 0.00 0.00 83 1002.0
20240521105459 72 141 0.0 10.0 0.00 0.00 0.00 83 1002.0
20240521104959 72 135 0.0 7.0 0.00 0.00 0.00 83 1002.0
20240521103500 72 134 3.0 7.0 0.00 0.00 0.00 83 1001.0
20240521103000 72 140 0.0 7.0 0.00 0.00 0.00 83 1002.0
20240521102459 72 141 3.0 8.0 0.00 0.00 0.00 83 1002.0
20240521101959 72 144 4.0 8.0 0.00 0.00 0.00 84 1002.0
20240521101459 72 147 0.0 7.0 0.00 0.00 0.00 83 1002.0
20240521100959 72 144 3.0 7.0 0.00 0.00 0.00 83 1002.0
20240521100459 72 146 4.0 7.0 0.00 0.00 0.00 84 1002.0
20240521095959 72 160 0.0 7.0 0.00 0.00 0.00 84 1002.0
20240521095459 72 169 4.0 6.0 0.00 0.00 0.00 84 1002.0
20240521094501 72 141 0.0 5.0 0.00 0.00 0.00 83 1003.0
20240521093959 72 143 0.0 5.0 0.00 0.00 0.00 83 1003.0
20240521093458 72 140 3.0 7.0 0.00 0.00 0.00 84 1003.0
20240521092959 72 137 3.0 7.0 0.00 0.00 0.00 84 1003.0
20240521092500 72 142 3.0 7.0 0.00 0.00 0.00 84 1003.0
20240521091959 72 138 4.0 6.0 0.00 0.00 0.00 84 1003.0
20240521091459 72 139 3.0 4.0 0.00 0.00 0.00 84 1003.0
20240521090959 72 148 0.0 4.0 0.00 0.00 0.00 84 1003.0
20240521090500 72 151 0.0 4.0 0.00 0.00 0.00 84 1003.0
20240521090000 72 143 3.0 5.0 0.00 0.00 0.00 84 1004.0
20240521085459 72 146 0.0 5.0 0.00 0.00 0.00 84 1004.0
20240521084959 73 155 0.0 4.0 0.00 0.00 0.00 84 1004.0
20240521084459 73 169 0.0 5.0 0.00 0.00 0.00 84 1004.0
20240521083959 73 173 3.0 5.0 0.00 0.00 0.00 84 1004.0
20240521083500 73 161 0.0 5.0 0.00 0.00 0.00 84 1004.0
20240521083000 73 141 0.0 5.0 0.00 0.00 0.00 84 1004.0
20240521082459 73 138 0.0 5.0 0.00 0.00 0.00 84 1004.0
20240521081959 73 166 0.0 6.0 0.00 0.00 0.00 84 1004.0
20240521081459 73 170 0.0 6.0 0.00 0.00 0.00 84 1004.0
20240521080959 73 163 0.0 5.0 0.00 0.00 0.00 84 1004.0
20240521080459 73 157 0.0 5.0 0.00 0.00 0.00 84 1004.0
20240521080000 73 165 3.0 5.0 0.00 0.00 0.00 84 1004.0
20240521075459 73 176 0.0 4.0 0.00 0.00 0.00 84 1004.0
20240521074959 73 140 0.0 4.0 0.00 0.00 0.00 83 1004.0
20240521074459 73 138 0.0 4.0 0.00 0.00 0.00 82 1005.0
20240521074000 74 133 0.0 4.0 0.00 0.00 0.00 82 1005.0
20240521073459 74 145 3.0 4.0 0.00 0.00 0.00 82 1005.0
20240521072959 74 167 3.0 4.0 0.00 0.00 0.00 82 1005.0
20240521072500 74 169 0.0 7.0 0.00 0.00 0.00 82 1005.0
20240521071959 74 140 0.0 7.0 0.00 0.00 0.00 82 1005.0
20240521071500 74 142 3.0 6.0 0.00 0.00 0.00 82 1005.0
20240521070959 74 184 0.0 4.0 0.00 0.00 0.00 82 1005.0
20240521070500 74 176 0.0 4.0 0.00 0.00 0.00 82 1005.0
20240521070000 74 177 0.0 4.0 0.00 0.00 0.00 82 1006.0
20240521065459 74 176 0.0 4.0 0.00 0.00 0.00 82 1006.0
20240521065000 74 168 0.0 4.0 0.00 0.00 0.00 82 1006.0
20240521064459 74 135 0.0 3.0 0.00 0.00 0.00 82 1006.0
20240521064000 74 189 0.0 4.0 0.00 0.00 0.00 82 1006.0
20240521063500 74 187 0.0 4.0 0.00 0.00 0.00 82 1006.0
20240521063001 74 186 3.0 4.0 0.00 0.00 0.00 83 1006.0
20240521062500 74 0 0.0 0.0 0.00 0.00 0.00 83 1006.0
20240521061959 74 0 0.0 0.0 0.00 0.00 0.00 83 1006.0
20240521061000 74 182 0.0 4.0 0.00 0.00 0.00 83 1006.0
20240521060459 74 0 0.0 0.0 0.00 0.00 0.00 83 1006.0
20240521060000 74 0 0.0 0.0 0.00 0.00 0.00 83 1006.0
20240521055459 74 0 0.0 0.0 0.00 0.00 0.00 83 1006.0
20240521055000 74 0 0.0 0.0 0.00 0.00 0.00 83 1006.0
20240521054459 74 0 0.0 0.0 0.00 0.00 0.00 83 1006.0
20240521054000 74 191 0.0 3.0 0.00 0.00 0.00 83 1006.0
20240521053459 74 187 0.0 4.0 0.00 0.00 0.00 83 1006.0
20240521052459 74 143 0.0 4.0 0.00 0.00 0.00 83 1006.0
20240521052000 74 139 0.0 4.0 0.00 0.00 0.00 83 1006.0
20240521051500 74 131 0.0 4.0 0.00 0.08 0.00 83 1006.0
20240521051000 74 128 3.0 4.0 0.00 0.08 0.00 83 1006.0
20240521050015 74 165 0.0 6.0 0.00 0.12 0.00 83 1006.0
20240521045459 74 149 0.0 4.0 0.00 0.16 0.12 83 1006.0
20240521045000 74 149 0.0 4.0 0.00 0.16 0.12 83 1006.0
20240521044459 74 173 0.0 3.0 0.00 0.20 0.12 83 1007.0
20240521044000 74 173 0.0 3.0 0.00 0.24 0.12 83 1007.0
20240521043501 74 0 0.0 0.0 0.00 0.24 0.12 83 1007.0
20240521043001 74 0 0.0 0.0 0.00 0.28 0.12 83 1007.0
20240521042500 74 0 0.0 0.0 0.00 0.28 0.12 83 1007.0
20240521041959 74 0 0.0 0.0 0.00 0.28 0.12 83 1007.0
20240521041500 74 0 0.0 0.0 0.00 0.35 0.12 83 1007.0
20240521041000 75 0 0.0 0.0 0.00 0.39 0.12 83 1007.0
20240521040459 75 0 0.0 0.0 0.00 0.43 0.12 83 1007.0
20240521040000 75 0 0.0 0.0 0.00 0.55 0.12 82 1008.0
20240521035459 75 0 0.0 0.0 0.00 0.63 0.12 82 1008.0
20240521035000 75 118 0.0 3.0 0.00 0.63 0.12 82 1008.0
20240521034459 76 118 0.0 3.0 0.00 0.63 0.12 82 1008.0
20240521034000 75 120 0.0 4.0 0.00 0.63 0.12 82 1008.0
20240521033000 76 119 0.0 5.0 0.00 0.67 0.12 82 1008.0
20240521032500 76 121 0.0 5.0 0.00 0.67 0.12 82 1008.0
20240521032000 76 127 0.0 3.0 0.00 0.71 0.12 82 1008.0
20240521031459 76 130 0.0 4.0 0.00 0.75 0.12 82 1008.0
20240521031000 76 131 0.0 4.0 0.00 0.98 0.12 82 1008.0
20240521030459 76 0 0.0 0.0 0.00 1.06 0.12 82 1008.0
20240521030000 76 0 0.0 0.0 0.00 1.14 0.12 81 1008.0
20240521025500 76 0 0.0 0.0 0.00 1.14 0.12 81 1008.0
20240521025000 76 132 0.0 3.0 0.00 1.14 0.12 81 1008.0
20240521024000 75 0 0.0 0.0 0.00 1.14 0.12 81 1007.0
20240521023002 76 0 0.0 0.0 0.00 1.14 0.12 81 1007.0
20240521022500 76 0 0.0 0.0 0.00 1.14 0.12 80 1007.0
20240521022000 76 0 0.0 0.0 0.00 1.14 0.12 80 1007.0
20240521021000 76 0 0.0 0.0 0.00 1.14 0.12 80 1008.0
20240521020500 76 0 0.0 0.0 0.00 1.14 0.12 80 1008.0
20240521020001 76 0 0.0 0.0 0.00 1.14 0.12 80 1008.0
20240521015500 76 0 0.0 0.0 0.00 1.14 0.12 80 1008.0
20240521015000 76 0 0.0 0.0 0.00 1.14 0.12 79 1008.0
20240521014500 77 0 0.0 0.0 0.00 1.14 0.12 79 1008.0
20240521014000 77 0 0.0 0.0 0.00 1.14 0.12 78 1008.0
20240521013500 77 0 0.0 0.0 0.00 1.14 0.12 79 1008.0
20240521013001 77 0 0.0 0.0 0.00 1.14 0.12 78 1008.0
20240521012500 77 0 0.0 0.0 0.00 1.14 0.12 78 1008.0
20240521011500 78 0 0.0 0.0 0.00 1.14 0.12 77 1008.0
20240521011000 78 0 0.0 0.0 0.00 1.14 0.12 77 1008.0
20240521010500 78 0 0.0 0.0 0.00 1.14 0.12 77 1008.0
20240521010000 78 0 0.0 0.0 0.00 1.14 0.12 77 1008.0
20240521004000 79 0 0.0 0.0 0.00 1.14 0.12 77 1008.0
20240521003502 79 0 0.0 0.0 0.00 1.14 0.12 76 1008.0
20240521003001 79 0 0.0 0.0 0.00 1.14 0.12 77 1008.0
20240521002500 79 195 0.0 5.0 0.00 1.14 0.12 77 1008.0
20240521002001 79 181 3.0 5.0 0.00 1.14 0.12 77 1008.0
20240521001001 80 159 0.0 4.0 0.00 1.14 0.12 76 1008.0
20240521000500 80 177 0.0 7.0 0.00 1.14 0.12 77 1008.0
20240521000001 80 179 3.0 7.0 0.00 1.14 0.12 77 1008.0
20240520235500 80 185 0.0 4.0 0.00 1.14 0.12 77 1008.0
20240520234500 80 193 0.0 5.0 0.00 1.14 0.12 77 1008.0
20240520234001 80 161 0.0 5.0 0.00 1.14 0.12 76 1008.0
20240520233500 81 138 0.0 5.0 0.00 1.14 0.12 76 1008.0
20240520233001 81 135 0.0 4.0 0.00 1.14 0.12 77 1008.0
20240520232500 80 158 0.0 4.0 0.00 1.14 0.12 77 1008.0
20240520231500 81 198 0.0 3.0 0.00 1.14 0.12 78 1008.0
20240520231001 81 0 0.0 0.0 0.00 1.14 0.12 78 1008.0
20240520230500 81 163 0.0 4.0 0.00 1.14 0.12 78 1008.0
20240520230001 81 162 0.0 5.0 0.00 1.14 0.12 77 1008.0
20240520225500 81 136 0.0 5.0 0.00 1.14 0.12 78 1008.0
20240520224500 81 186 0.0 5.0 0.00 1.14 0.12 78 1008.0
20240520224001 81 168 3.0 5.0 0.00 1.14 0.12 79 1008.0
20240520223501 81 189 0.0 4.0 0.00 1.14 0.12 80 1008.0
20240520223003 80 139 0.0 4.0 0.00 1.14 0.12 80 1008.0
20240520222500 81 115 3.0 4.0 0.00 1.14 0.12 79 1008.0
20240520222001 81 99 0.0 4.0 0.00 1.14 0.12 80 1008.0
20240520221500 81 140 3.0 4.0 0.00 1.14 0.12 80 1009.0
20240520221001 81 129 0.0 4.0 0.00 1.14 0.12 80 1009.0
20240520220500 81 125 0.0 4.0 0.00 1.14 0.12 81 1009.0
20240520220001 81 157 0.0 4.0 0.00 1.14 0.12 81 1009.0
20240520215501 81 150 3.0 4.0 0.00 1.14 0.12 80 1009.0
20240520214501 80 0 0.0 0.0 0.00 1.14 0.12 82 1009.0
20240520213500 80 119 0.0 4.0 0.00 1.14 0.12 81 1009.0
20240520213001 80 124 3.0 4.0 0.00 1.14 0.12 80 1009.0
20240520212501 80 163 0.0 3.0 0.00 1.14 0.12 81 1009.0
20240520211000 80 0 0.0 0.0 0.00 1.14 0.12 81 1009.0
20240520210501 80 199 0.0 5.0 0.00 1.14 0.12 81 1009.0
20240520210000 80 171 0.0 5.0 0.00 1.14 0.12 82 1009.0
20240520205501 80 114 0.0 4.0 0.00 1.14 0.12 82 1009.0
20240520204001 80 173 0.0 3.0 0.00 1.14 0.12 82 1009.0
20240520203502 80 178 0.0 4.0 0.00 1.14 0.12 84 1009.0
20240520203002 81 175 0.0 4.0 0.00 1.14 0.12 83 1010.0
20240520202501 81 174 3.0 4.0 0.00 1.14 0.12 84 1010.0
20240520202001 81 193 0.0 4.0 0.00 1.14 0.12 84 1010.0
20240520201501 81 167 0.0 4.0 0.00 1.14 0.12 84 1010.0
20240520201001 81 144 0.0 5.0 0.00 1.14 0.12 86 1010.0
20240520200002 81 190 0.0 3.0 0.00 1.14 0.12 87 1010.0
20240520195501 81 177 0.0 5.0 0.00 1.14 0.12 87 1010.0
20240520194501 81 181 0.0 6.0 0.00 1.14 0.12 87 1010.0
20240520194000 81 177 0.0 4.0 0.00 1.14 0.12 89 1010.0